All Stations Radar Satellite Rainfall Station Map Enhanced Site
Observations: Wind Gusts Humidity Temperature    
Forecasts: Wind Gusts Humidity Temperature    

Valley Center (907, 908, 909, 1030, 6926) Station Data (Station Map)

Red Flag Warning: No
Fire Weather Zone: 250
SDGE Region: North East
Lat/Lon: 33.236/-117.001

Observations

Time (PDT)Wind Spd/GustTempRHFuel Moisture
10/23 10:40amS 2 G 587°13%-
10/23 10:30amS 1 G 486°14%-
10/23 10:20amESE 1 G 385°14%-
10/23 10:10amSE 1 G 384°15%-
10/23 10:00amE 1 G 384°15%-
10/23 9:50amNNE 1 G 283°15%-
10/23 9:40amNNE 1 G 282°15%-
10/23 9:30amESE 1 G 282°16%-
10/23 9:20amSE 1 G 280°17%-
10/23 9:10amSE 1 G 277°20%-
10/23 9:00amSE 1 G 276°22%-
10/23 8:50amSE 1 G 275°24%-
10/23 8:40amSE 1 G 272°26%-
10/23 8:30amSE 1 G 271°27%-
10/23 8:20amSE 1 G 269°28%-
10/23 8:10amSE 1 G 267°29%-
10/23 8:00amSE 1 G 369°24%-
10/23 7:50amESE 2 G 368°24%-
10/23 7:40amE 2 G 467°27%-
10/23 7:30amESE 2 G 365°28%-
10/23 7:20amESE 1 G 365°27%-
10/23 7:10amESE 1 G 365°28%-
10/23 7:00amESE 2 G 365°28%-
10/23 6:50amENE 1 G 364°28%-
10/23 6:40amENE 1 G 164°29%-
10/23 6:30amENE 1 G 164°29%-
10/23 6:20amENE 1 G 365°28%-
10/23 6:10amENE 2 G 365°28%-
10/23 6:00amENE 2 G 366°27%-
10/23 5:50amENE 1 G 366°27%-
10/23 5:40amENE 1 G 265°29%-
10/23 5:30amE 2 G 365°31%-
10/23 5:20amE 1 G 266°29%-
10/23 5:10amE 2 G 366°30%-
10/23 5:00amE 2 G 364°33%-
10/23 4:50amESE 2 G 364°34%-
10/23 4:40amESE 1 G 265°32%-
10/23 4:30amE 1 G 264°34%-
10/23 4:20amENE 1 G 262°40%-
10/23 4:10amENE 1 G 261°43%-
10/23 4:00amENE 1 G 261°39%-
10/23 3:50amENE 1 G 262°37%-
10/23 3:40amNE 1 G 261°40%-
10/23 3:30amNNE 1 G 261°39%-
10/23 3:20amNNE 1 G 261°38%-
10/23 3:10amNNE 2 G 362°36%-
10/23 3:00amNNE 2 G 363°36%-
10/23 2:50amNNE 1 G 261°39%-
10/23 2:40amNE 1 G 162°38%-
10/23 2:30amNE 1 G 264°34%-
10/23 2:20amNNE 1 G 263°38%-
10/23 2:10amNE 1 G 262°39%-
10/23 2:00amNE 1 G 162°39%-
10/23 1:50amNE 1 G 262°40%-
10/23 1:40amNE 1 G 260°43%-
10/23 1:30amNE 1 G 258°48%-
10/23 1:20amNNE 1 G 259°46%-
10/23 1:10amNNE 1 G 261°42%-
10/23 1:00amN 2 G 262°42%-
10/23 12:50amNNE 1 G 162°46%-
10/23 12:40amNE 1 G 162°49%-
10/23 12:30amNNE 1 G 161°50%-
10/23 12:20amNNE 1 G 161°49%-
10/23 12:10amNNE 1 G 263°47%-
10/23 12:00amNNE 2 G 362°48%-
10/22 11:50pmNNE 2 G 362°47%-
10/22 11:40pmN 2 G 262°48%-
10/22 11:30pmNNE 2 G 262°48%-
10/22 11:20pmNNE 2 G 262°48%-
10/22 11:10pmN 2 G 362°50%-
10/22 11:00pmNNE 2 G 362°49%-
10/22 10:50pmNE 1 G 263°47%-
10/22 10:40pmN 2 G 263°49%-
10/22 10:30pmN 2 G 363°51%-
10/22 10:20pmNNE 2 G 263°50%-
10/22 10:10pmNNE 1 G 264°50%-
10/22 10:00pmNE 1 G 264°49%-
10/22 9:50pmNNE 1 G 164°49%-
10/22 9:40pmNNE 1 G 164°49%-
10/22 9:30pmNNE 1 G 163°52%-
10/22 9:20pmNNE 1 G 262°52%-
10/22 9:10pmNE 1 G 263°51%-
10/22 9:00pmNNE 1 G 363°51%-
10/22 8:50pmNNE 1 G 264°50%-
10/22 8:40pmNNE 2 G 264°50%-
10/22 8:30pmNNE 1 G 264°50%-
10/22 8:20pmNNE 1 G 265°50%-
10/22 8:10pmNNE 1 G 266°49%-
10/22 8:00pmNNE 2 G 266°48%-
10/22 7:50pmN 2 G 367°48%-
10/22 7:40pmN 1 G 268°47%-
10/22 7:30pmN 1 G 268°46%-
10/22 7:20pmNE 1 G 168°46%-
10/22 7:10pmE 1 G 169°45%-
10/22 7:00pmESE 1 G 170°44%-
10/22 6:50pmE 1 G 171°42%-
10/22 6:40pmNW 1 G 273°39%-
10/22 6:30pmNW 2 G 373°38%-
10/22 6:20pmNW 2 G 474°37%-
10/22 6:10pmNW 2 G 475°35%-
10/22 6:00pmNW 2 G 576°33%-
10/22 5:50pmNW 2 G 578°30%-
10/22 5:40pmWNW 3 G 578°29%-
10/22 5:30pmWNW 3 G 779°28%-
10/22 5:20pmWNW 4 G 680°26%-
10/22 5:10pmWNW 4 G 881°24%-
10/22 5:00pmWNW 4 G 782°22%-
10/22 4:50pmW 3 G 783°20%-
10/22 4:40pmWSW 2 G 683°20%-
10/22 4:30pmWSW 2 G 683°21%-
10/22 4:20pmW 3 G 683°22%-
10/22 4:10pmW 4 G 883°22%-
10/22 4:00pmW 4 G 883°23%-
10/22 3:50pmW 3 G 883°24%-
10/22 3:40pmW 3 G 783°25%-
10/22 3:30pmW 3 G 883°27%-
10/22 3:20pmW 5 G 983°28%-
10/22 3:10pmW 6 G 1083°29%-
10/22 3:00pmWNW 5 G 983°29%-
10/22 2:50pmWNW 5 G 1183°29%-
10/22 2:40pmWNW 7 G 1282°30%-
10/22 2:30pmNW 7 G 1283°29%-
10/22 2:20pmWNW 6 G 1184°27%-
10/22 2:10pmWNW 6 G 1284°24%-
10/22 2:00pmWNW 5 G 1084°22%-
10/22 1:50pmWSW 5 G 1184°22%-
10/22 1:40pmW 3 G 785°20%-
10/22 1:30pmWNW 6 G 1485°20%-
10/22 1:20pmWNW 4 G 984°22%-
10/22 1:10pmW 4 G 885°20%-
10/22 1:00pmNW 5 G 1084°19%-
10/22 12:50pmNW 5 G 1284°18%-
10/22 12:40pmW 4 G 984°16%-
10/22 12:30pmW 4 G 985°14%-
10/22 12:20pmWNW 4 G 884°13%-
10/22 12:10pmW 3 G 784°11%-
10/22 12:00pmW 3 G 884°12%-
10/22 11:50amSSW 1 G 485°11%-
10/22 11:40amSE 1 G 684°11%-
10/22 11:30amSSW 2 G 482°11%-
10/22 11:20amSSE 2 G 482°11%-
10/22 11:10amWNW 1 G 381°12%-
10/22 11:00amNE 1 G 382°13%-
10/22 10:50amE 1 G 280°14%-
10/22 10:40amE 1 G 379°16%-
10/22 10:30amSE 1 G 479°18%-
10/22 10:20amSSE 1 G 278°19%-
10/22 10:10amE 1 G 377°22%-
10/22 10:00amENE 1 G 477°23%-
10/22 9:50amSE 1 G 376°24%-
10/22 9:40amSE 1 G 276°25%-
10/22 9:30amSE 1 G 275°26%-
10/22 9:20amSSE 1 G 273°27%-
10/22 9:10amNNE 1 G 173°28%-
10/22 9:00amESE 1 G 270°32%-
10/22 8:50amSE 1 G 269°35%-
10/22 8:40amSE 1 G 267°39%-
10/22 8:30amESE 1 G 265°42%-
10/22 8:20amESE 1 G 263°44%-
10/22 8:10amSE 1 G 161°47%-
10/22 8:00amSE 1 G 261°45%-
10/22 7:50amNE 2 G 360°44%-
10/22 7:40amNNE 2 G 457°48%-
10/22 7:30amN 1 G 356°49%-
10/22 7:20amN 1 G 256°48%-
10/22 7:10amNNE 2 G 358°44%-
10/22 7:00amNE 1 G 258°44%-
10/22 6:50amENE 1 G 258°47%-
10/22 6:40amENE 1 G 257°51%-
10/22 6:30amE 1 G 257°53%-
10/22 6:20amE 1 G 256°54%-
10/22 6:10amENE 1 G 256°53%-
10/22 6:00amENE 1 G 155°54%-